Time,TemperatureF,DewpointF,PressureIn,WindDirection,WindDirectionDegrees,WindSpeedMPH,WindSpeedGustMPH,Humidity,HourlyPrecipIn,Conditions,Clouds,dailyrainin,SoftwareType,DateUTC
2013-02-08 00:01:00,24.0,23.0,30.03,NE,35,0.0,0.0,95,0.00,,,0.26,,2013-02-08 06:01:00,
2013-02-08 00:11:00,24.0,23.0,30.03,NE,35,0.0,0.0,95,0.00,,,0.26,,2013-02-08 06:11:00,
2013-02-08 00:21:00,24.0,23.0,30.03,NE,35,0.0,0.0,95,0.00,,,0.26,,2013-02-08 06:21:00,
2013-02-08 00:32:00,24.0,23.0,30.05,North,0,0.0,0.0,95,0.00,,,0.26,,2013-02-08 06:32:00,
2013-02-08 00:42:00,24.0,23.0,30.05,North,0,0.0,0.0,95,0.00,,,0.26,,2013-02-08 06:42:00,
2013-02-08 00:52:00,24.0,23.0,30.05,North,0,0.0,0.0,95,0.00,,,0.26,,2013-02-08 06:52:00,
2013-02-08 01:01:00,23.0,22.0,30.06,North,355,0.0,0.0,94,0.00,,,0.25,,2013-02-08 07:01:00,
2013-02-08 01:11:00,23.0,22.0,30.06,North,355,0.0,0.0,94,0.00,,,0.25,,2013-02-08 07:11:00,
2013-02-08 01:21:00,23.0,22.0,30.06,West,279,0.0,0.0,94,0.00,,,0.25,,2013-02-08 07:21:00,
2013-02-08 01:32:00,23.0,22.0,30.07,NNW,344,0.0,0.0,94,0.00,,,0.25,,2013-02-08 07:32:00,
2013-02-08 01:42:00,23.0,22.0,30.09,NW,315,0.0,0.0,94,0.00,,,0.25,,2013-02-08 07:42:00,
2013-02-08 01:51:00,23.0,22.0,30.09,NW,315,0.0,0.0,94,0.00,,,0.25,,2013-02-08 07:51:00,
2013-02-08 02:01:00,23.0,22.0,30.09,NW,322,0.0,0.0,94,0.00,,,0.25,,2013-02-08 08:01:00,
2013-02-08 02:11:00,23.0,22.0,30.09,NW,322,0.0,0.0,94,0.00,,,0.25,,2013-02-08 08:11:00,
2013-02-08 02:21:00,23.0,22.0,30.09,NW,322,0.0,0.0,94,0.00,,,0.25,,2013-02-08 08:21:00,
2013-02-08 02:32:00,23.0,22.0,30.09,NW,322,0.0,0.0,94,0.00,,,0.25,,2013-02-08 08:32:00,
2013-02-08 03:03:00,21.0,19.0,30.12,NW,326,0.0,0.0,93,0.00,,,0.24,,2013-02-08 09:03:00,
2013-02-08 03:11:00,21.0,19.0,30.12,NW,326,0.0,0.0,93,0.00,,,0.24,,2013-02-08 09:11:00,
2013-02-08 03:21:00,21.0,19.0,30.12,NW,326,0.0,0.0,93,0.00,,,0.24,,2013-02-08 09:21:00,
2013-02-08 03:32:00,21.0,19.0,30.13,North,11,0.0,0.0,92,0.00,,,0.24,,2013-02-08 09:32:00,
2013-02-08 03:42:00,21.0,19.0,30.13,North,11,0.0,0.0,92,0.00,,,0.24,,2013-02-08 09:42:00,
2013-02-08 03:52:00,21.0,19.0,30.14,North,353,0.0,0.0,92,0.00,,,0.23,,2013-02-08 09:52:00,
2013-02-08 04:01:00,21.0,19.0,30.14,West,277,0.0,0.0,92,0.00,,,0.23,,2013-02-08 10:01:00,
2013-02-08 04:11:00,21.0,19.0,30.14,West,277,0.0,0.0,92,0.00,,,0.23,,2013-02-08 10:11:00,
2013-02-08 04:22:00,21.0,19.0,30.14,West,277,0.0,0.0,92,0.00,,,0.23,,2013-02-08 10:22:00,
2013-02-08 04:32:00,22.0,20.0,30.15,NNE,16,0.0,0.0,92,0.00,,,0.23,,2013-02-08 10:32:00,
2013-02-08 04:42:00,22.0,20.0,30.15,NNE,16,0.0,0.0,92,0.00,,,0.23,,2013-02-08 10:42:00,
2013-02-08 04:52:00,23.0,21.0,30.16,NNE,15,0.0,0.0,92,0.00,,,0.23,,2013-02-08 10:52:00,
2013-02-08 05:01:00,23.0,21.0,30.16,NNE,15,0.0,0.0,92,0.00,,,0.23,,2013-02-08 11:01:00,
2013-02-08 05:11:00,23.0,21.0,30.16,NNE,15,0.0,0.0,92,0.00,,,0.23,,2013-02-08 11:11:00,
2013-02-08 05:21:00,23.0,21.0,30.17,NNE,30,0.0,0.0,92,0.00,,,0.23,,2013-02-08 11:21:00,
2013-02-08 05:32:00,23.0,21.0,30.18,NNE,23,0.0,0.0,92,0.00,,,0.23,,2013-02-08 11:32:00,
2013-02-08 05:42:00,23.0,21.0,30.18,NNE,23,0.0,0.0,92,0.00,,,0.23,,2013-02-08 11:42:00,
2013-02-08 05:52:00,23.0,21.0,30.19,NNE,14,0.0,0.0,91,0.00,,,0.23,,2013-02-08 11:52:00,
2013-02-08 06:02:00,23.0,21.0,30.21,NW,316,0.0,0.0,91,0.00,,,0.23,,2013-02-08 12:02:00,
2013-02-08 06:11:00,23.0,21.0,30.21,NW,316,0.0,0.0,91,0.00,,,0.23,,2013-02-08 12:11:00,
2013-02-08 06:22:00,23.0,21.0,30.22,ENE,75,0.0,0.0,91,0.00,,,0.23,,2013-02-08 12:22:00,
2013-02-08 06:33:00,23.0,21.0,30.22,NNE,26,0.0,0.0,91,0.00,,,0.22,,2013-02-08 12:33:00,
2013-02-08 06:42:00,23.0,21.0,30.22,NNE,26,0.0,0.0,91,0.00,,,0.22,,2013-02-08 12:42:00,
2013-02-08 06:52:00,23.0,21.0,30.22,NNE,26,0.0,0.0,91,0.00,,,0.22,,2013-02-08 12:52:00,
2013-02-08 07:01:00,23.0,21.0,30.24,NNE,17,0.0,0.0,91,0.00,,,0.22,,2013-02-08 13:01:00,
2013-02-08 07:11:00,23.0,21.0,30.24,NNE,17,0.0,0.0,91,0.00,,,0.22,,2013-02-08 13:11:00,
2013-02-08 07:22:00,23.0,21.0,30.24,NNW,347,0.0,0.0,91,0.00,,,0.22,,2013-02-08 13:22:00,
2013-02-08 07:32:00,23.0,21.0,30.25,NE,36,0.0,0.0,90,0.00,,,0.21,,2013-02-08 13:32:00,
2013-02-08 07:42:00,23.0,21.0,30.25,NE,36,0.0,0.0,90,0.00,,,0.21,,2013-02-08 13:42:00,
2013-02-08 07:51:00,23.0,21.0,30.25,NW,324,0.0,0.0,90,0.00,,,0.21,,2013-02-08 13:51:00,
2013-02-08 08:02:00,23.0,21.0,30.25,NW,324,0.0,0.0,90,0.00,,,0.21,,2013-02-08 14:02:00,
2013-02-08 08:11:00,23.0,21.0,30.25,NW,324,0.0,0.0,90,0.00,,,0.21,,2013-02-08 14:11:00,
2013-02-08 08:22:00,23.0,21.0,30.25,NW,324,0.0,0.0,90,0.00,,,0.21,,2013-02-08 14:22:00,
2013-02-08 08:32:00,23.0,21.0,30.29,North,0,0.0,0.0,90,0.00,,,0.20,,2013-02-08 14:32:00,
2013-02-08 08:42:00,23.0,21.0,30.29,North,0,0.0,0.0,90,0.00,,,0.20,,2013-02-08 14:42:00,
2013-02-08 08:52:00,23.0,21.0,30.29,North,0,0.0,0.0,90,0.00,,,0.20,,2013-02-08 14:52:00,
2013-02-08 09:02:00,23.0,20.0,30.31,NNW,333,0.0,0.0,89,0.00,,,0.19,,2013-02-08 15:02:00,
2013-02-08 09:11:00,23.0,20.0,30.31,NNW,333,0.0,0.0,89,0.00,,,0.19,,2013-02-08 15:11:00,
2013-02-08 09:22:00,23.0,20.0,30.31,NNW,333,0.0,0.0,89,0.00,,,0.19,,2013-02-08 15:22:00,
2013-02-08 09:32:00,24.0,21.0,30.32,NNW,327,0.0,0.0,88,0.00,,,0.19,,2013-02-08 15:32:00,
2013-02-08 09:42:00,24.0,21.0,30.32,NNW,327,0.0,0.0,88,0.00,,,0.19,,2013-02-08 15:42:00,
2013-02-08 09:52:00,24.0,21.0,30.32,NNW,339,4.0,9.0,87,0.00,,,0.19,,2013-02-08 15:52:00,
2013-02-08 10:01:00,23.0,20.0,30.32,North,352,2.0,9.0,87,0.00,,,0.19,,2013-02-08 16:01:00,
2013-02-08 10:11:00,23.0,20.0,30.32,North,352,2.0,9.0,87,0.00,,,0.19,,2013-02-08 16:11:00,
2013-02-08 10:22:00,23.0,20.0,30.32,North,352,2.0,9.0,87,0.00,,,0.19,,2013-02-08 16:22:00,
2013-02-08 10:32:00,23.0,20.0,30.32,North,352,2.0,9.0,87,0.00,,,0.19,,2013-02-08 16:32:00,
2013-02-08 10:52:00,24.0,21.0,30.35,NNE,27,2.0,5.0,87,0.00,,,0.17,,2013-02-08 16:52:00,
2013-02-08 11:03:00,24.0,21.0,30.35,NNE,27,2.0,5.0,87,0.00,,,0.17,,2013-02-08 17:03:00,
2013-02-08 11:12:00,24.0,21.0,30.35,NNE,27,2.0,5.0,87,0.00,,,0.17,,2013-02-08 17:12:00,
2013-02-08 11:22:00,24.0,21.0,30.35,NNE,27,2.0,5.0,87,0.00,,,0.17,,2013-02-08 17:22:00,
2013-02-08 12:02:00,25.0,21.0,30.35,NNW,328,1.0,5.0,86,0.00,,,0.14,,2013-02-08 18:02:00,
2013-02-08 12:12:00,25.0,21.0,30.35,NNW,328,1.0,5.0,86,0.00,,,0.14,,2013-02-08 18:12:00,
2013-02-08 12:24:00,25.0,21.0,30.35,North,10,2.0,5.0,86,0.00,,,0.14,,2013-02-08 18:24:00,
2013-02-08 12:34:00,25.0,21.0,30.35,NW,305,2.0,7.0,86,0.00,,,0.13,,2013-02-08 18:34:00,
2013-02-08 12:43:00,25.0,21.0,30.35,NW,305,2.0,7.0,86,0.00,,,0.13,,2013-02-08 18:43:00,
2013-02-08 12:52:00,25.0,21.0,30.35,WNW,292,3.0,6.0,86,0.00,,,0.13,,2013-02-08 18:52:00,
2013-02-08 13:02:00,25.0,21.0,30.35,WNW,292,3.0,6.0,86,0.00,,,0.13,,2013-02-08 19:02:00,
2013-02-08 13:11:00,25.0,21.0,30.35,WNW,292,3.0,6.0,86,0.00,,,0.13,,2013-02-08 19:11:00,
2013-02-08 13:22:00,25.0,21.0,30.35,WNW,292,3.0,6.0,86,0.00,,,0.13,,2013-02-08 19:22:00,
2013-02-08 13:33:00,25.0,22.0,30.35,NW,316,1.0,5.0,87,0.00,,,0.11,,2013-02-08 19:33:00,
2013-02-08 13:42:00,25.0,22.0,30.35,NW,316,1.0,5.0,87,0.00,,,0.11,,2013-02-08 19:42:00,
2013-02-08 13:52:00,25.0,22.0,30.35,NW,316,1.0,5.0,87,0.00,,,0.11,,2013-02-08 19:52:00,
2013-02-08 14:02:00,25.0,21.0,30.35,NNE,12,2.0,6.0,85,0.00,,,0.10,,2013-02-08 20:02:00,
2013-02-08 14:11:00,25.0,21.0,30.35,NNE,12,2.0,6.0,85,0.00,,,0.10,,2013-02-08 20:11:00,
2013-02-08 14:22:00,24.0,20.0,30.35,WNW,287,3.0,7.0,86,0.00,,,0.10,,2013-02-08 20:22:00,
2013-02-08 14:32:00,24.0,20.0,30.35,WNW,287,3.0,7.0,86,0.00,,,0.10,,2013-02-08 20:32:00,
2013-02-08 14:42:00,24.0,20.0,30.35,WNW,287,3.0,7.0,86,0.00,,,0.10,,2013-02-08 20:42:00,
2013-02-08 14:52:00,25.0,21.0,30.35,NNE,28,2.0,7.0,86,0.00,,,0.09,,2013-02-08 20:52:00,
2013-02-08 15:02:00,25.0,21.0,30.35,West,272,3.0,7.0,86,0.00,,,0.08,,2013-02-08 21:02:00,
2013-02-08 15:11:00,25.0,21.0,30.35,West,272,3.0,7.0,86,0.00,,,0.08,,2013-02-08 21:11:00,
2013-02-08 15:22:00,25.0,21.0,30.35,West,272,3.0,7.0,86,0.00,,,0.08,,2013-02-08 21:22:00,
2013-02-08 15:32:00,25.0,21.0,30.36,NNE,17,0.0,3.0,86,0.00,,,0.07,,2013-02-08 21:32:00,
2013-02-08 15:42:00,25.0,21.0,30.36,NNE,17,0.0,3.0,86,0.00,,,0.07,,2013-02-08 21:42:00,
2013-02-08 15:52:00,25.0,21.0,30.36,NNE,17,0.0,3.0,86,0.00,,,0.07,,2013-02-08 21:52:00,
2013-02-08 16:02:00,25.0,21.0,30.36,North,5,3.0,5.0,85,0.00,,,0.06,,2013-02-08 22:02:00,
2013-02-08 16:11:00,25.0,21.0,30.36,North,5,3.0,5.0,85,0.00,,,0.06,,2013-02-08 22:11:00,
2013-02-08 16:22:00,25.0,21.0,30.36,North,5,3.0,5.0,85,0.00,,,0.06,,2013-02-08 22:22:00,
2013-02-08 16:32:00,25.0,21.0,30.36,North,9,1.0,5.0,85,0.00,,,0.05,,2013-02-08 22:32:00,
2013-02-08 16:42:00,25.0,21.0,30.36,North,9,1.0,5.0,85,0.00,,,0.05,,2013-02-08 22:42:00,
2013-02-08 16:52:00,25.0,21.0,30.36,North,9,1.0,5.0,85,0.00,,,0.05,,2013-02-08 22:52:00,
2013-02-08 17:01:00,23.0,20.0,30.36,NNE,22,2.0,3.0,87,0.00,,,0.04,,2013-02-08 23:01:00,
2013-02-08 17:11:00,23.0,20.0,30.36,NNE,22,2.0,3.0,87,0.00,,,0.04,,2013-02-08 23:11:00,
2013-02-08 17:21:00,23.0,20.0,30.37,NNE,22,0.0,3.0,87,0.00,,,0.04,,2013-02-08 23:21:00,
2013-02-08 17:32:00,23.0,20.0,30.39,NNE,22,0.0,1.0,87,0.00,,,0.04,,2013-02-08 23:32:00,
2013-02-08 17:42:00,23.0,20.0,30.39,NNE,22,0.0,1.0,87,0.00,,,0.04,,2013-02-08 23:42:00,
2013-02-08 17:52:00,23.0,20.0,30.39,NNE,22,1.0,3.0,88,0.00,,,0.03,,2013-02-08 23:52:00,
2013-02-08 18:02:00,22.0,19.0,30.38,NNE,23,1.0,3.0,88,0.00,,,0.03,,2013-02-09 00:02:00,
2013-02-08 18:11:00,22.0,19.0,30.38,NNE,23,1.0,3.0,88,0.00,,,0.03,,2013-02-09 00:11:00,
2013-02-08 18:21:00,22.0,19.0,30.38,NNE,23,0.0,0.0,88,0.00,,,0.03,,2013-02-09 00:21:00,
2013-02-08 18:32:00,21.0,18.0,30.37,NNE,23,0.0,2.0,89,0.00,,,0.02,,2013-02-09 00:32:00,
2013-02-08 18:42:00,21.0,18.0,30.37,NNE,23,0.0,2.0,89,0.00,,,0.02,,2013-02-09 00:42:00,
2013-02-08 18:52:00,21.0,18.0,30.37,NNE,23,0.0,2.0,89,0.00,,,0.02,,2013-02-09 00:52:00,
2013-02-08 19:01:00,21.0,18.0,30.37,NNE,23,0.0,2.0,89,0.00,,,0.02,,2013-02-09 01:01:00,
2013-02-08 19:11:00,21.0,18.0,30.37,NNE,23,0.0,2.0,89,0.00,,,0.02,,2013-02-09 01:11:00,
2013-02-08 19:32:00,18.0,16.0,30.39,NNE,23,0.0,0.0,91,0.00,,,0.01,,2013-02-09 01:32:00,
2013-02-08 19:42:00,18.0,16.0,30.39,NNE,23,0.0,0.0,91,0.00,,,0.01,,2013-02-09 01:42:00,
2013-02-08 19:52:00,18.0,16.0,30.39,NNE,23,0.0,0.0,91,0.00,,,0.01,,2013-02-09 01:52:00,
2013-02-08 20:01:00,17.0,15.0,30.40,NNE,23,0.0,1.0,92,0.00,,,0.01,,2013-02-09 02:01:00,
2013-02-08 20:11:00,17.0,15.0,30.40,NNE,23,0.0,1.0,92,0.00,,,0.01,,2013-02-09 02:11:00,
2013-02-08 20:21:00,17.0,15.0,30.40,NNE,23,0.0,0.0,92,0.00,,,0.01,,2013-02-09 02:21:00,
2013-02-08 20:32:00,16.0,14.0,30.40,NNE,23,0.0,0.0,92,0.00,,,0.00,,2013-02-09 02:32:00,
2013-02-08 20:42:00,16.0,14.0,30.40,NNE,23,0.0,0.0,92,0.00,,,0.00,,2013-02-09 02:42:00,
2013-02-08 20:52:00,16.0,14.0,30.40,NNE,23,0.0,0.0,92,0.00,,,0.00,,2013-02-09 02:52:00,
2013-02-08 21:02:00,16.0,14.0,30.40,NNE,23,0.0,0.0,92,0.00,,,0.00,,2013-02-09 03:02:00,
2013-02-08 21:11:00,16.0,14.0,30.40,NNE,23,0.0,0.0,92,0.00,,,0.00,,2013-02-09 03:11:00,
2013-02-08 21:22:00,15.0,13.0,30.41,NNE,23,0.0,0.0,93,0.00,,,0.00,,2013-02-09 03:22:00,
2013-02-08 21:32:00,15.0,13.0,30.42,NNE,23,0.0,0.0,93,0.00,,,0.00,,2013-02-09 03:32:00,
2013-02-08 21:42:00,15.0,13.0,30.42,NNE,23,0.0,0.0,93,0.00,,,0.00,,2013-02-09 03:42:00,
2013-02-08 21:52:00,15.0,13.0,30.42,NNE,23,0.0,0.0,93,0.00,,,0.00,,2013-02-09 03:52:00,
2013-02-08 22:02:00,14.0,12.0,30.41,NNE,23,0.0,0.0,92,0.00,,,0.00,,2013-02-09 04:02:00,
2013-02-08 22:12:00,14.0,12.0,30.41,NNE,23,0.0,0.0,92,0.00,,,0.00,,2013-02-09 04:12:00,
2013-02-08 22:23:00,14.0,12.0,30.41,NNE,23,0.0,0.0,92,0.00,,,0.00,,2013-02-09 04:23:00,
2013-02-08 22:32:00,12.0,10.0,30.41,NNE,24,1.0,3.0,93,0.00,,,0.00,,2013-02-09 04:32:00,
2013-02-08 22:42:00,12.0,10.0,30.41,NNE,24,1.0,3.0,93,0.00,,,0.00,,2013-02-09 04:42:00,
2013-02-08 22:52:00,12.0,10.0,30.41,NNE,24,1.0,3.0,93,0.00,,,0.00,,2013-02-09 04:52:00,
2013-02-08 23:02:00,16.0,15.0,30.41,ESE,118,1.0,3.0,95,0.00,,,0.00,,2013-02-09 05:02:00,
2013-02-08 23:12:00,16.0,15.0,30.41,ESE,118,1.0,3.0,95,0.00,,,0.00,,2013-02-09 05:12:00,
2013-02-08 23:22:00,16.0,15.0,30.41,ESE,118,1.0,3.0,95,0.00,,,0.00,,2013-02-09 05:22:00,
2013-02-08 23:32:00,16.0,15.0,30.41,ESE,118,1.0,3.0,95,0.00,,,0.00,,2013-02-09 05:32:00,
2013-02-08 23:42:00,16.0,15.0,30.41,ESE,118,1.0,3.0,95,0.00,,,0.00,,2013-02-09 05:42:00,
2013-02-08 23:52:00,19.0,18.0,30.40,ESE,113,5.0,7.0,95,0.00,,,0.00,,2013-02-09 05:52:00,